Powrót do katalogu

STARLINK-37506

AktywnyŁącznośćVLEO
NORAD 69261·PAYLOAD·🇺🇸 United States

Wystrzelony May 29, 2026 z Cape Canaveral Space Force Station

Loading…

Następne Przeloty (najbliższe 24 godziny)

TLE

ŚwieżeSource: CelesTrak SupGP

Epoka: Sep 15, 2026, 03:58 UTC

1 69261C 26117Z   26258.16576389 -.00013653  00000+0 -40351-3 0  2582
2 69261  53.1572 178.8917 0001303  85.7032 327.5292 15.34387031    18

Śledź STARLINK-37506 w czasie rzeczywistym z AllMySat

Download on the App Store